Temperature
19 19 19 19 18 19 19 18 18 18 19 18 18 18 18 18 18 18 18 18 18 18 18 18 18 18 18 18 18 18 18 17 17 17 17 17 17 17 17 17 17 17 16
19 19 19 18 18 18 18 18 19 19 18 18 19 19 19 19 18 18 18 18 18 18 18 18 18 18 18 18 18 18 18 17 17 17 17 17 17 17 17 17 16 16 16
19 19 19 19 18 18 18 18 18 19 19 19 19 19 19 19 19 18 18 18 18 18 18 18 18 18 18 18 18 18 18 18 17 17 17 17 17 17 17 17 17 16 16
19 19 19 19 19 19 19 19 19 19 19 19 19 19 19 19 19 19 19 18 18 18 18 18 18 18 18 18 18 18 18 18 17 17 17 17 17 17 17 17 16 16 16
19 19 19 19 19 19 19 19 19 19 19 19 19 19 19 19 19 19 19 19 18 18 18 18 18 18 18 18 18 18 18 18 17 17 17 17 17 17 17 17 17 16 16
19 19 19 19 19 19 19 19 19 19 19 19 19 19 19 19 19 19 19 19 19 19 18 18 18 18 18 18 18 18 18 18 18 17 17 17 17 17 17 17 17 16 16
19 19 19 19 19 19 19 19 19 19 19 19 19 19 19 19 19 19 19 19 19 19 19 19 18 18 18 18 18 18 18 18 18 18 17 17 17 17 17 17 17 16 16
19 19 19 19 19 19 19 19 19 19 19 18 18 19 19 19 19 19 19 19 19 19 19 19 19 18 18 18 18 18 18 18 18 18 17 17 17 17 17 17 17 17 16
19 19 19 19 19 19 19 19 19 19 19 18 18 18 18 18 19 19 19 19 19 19 19 19 19 19 18 18 18 18 18 18 18 18 18 17 17 17 17 17 17 17 16
19 19 19 19 19 19 19 19 19 18 18 18 18 18 18 18 18 18 19 19 19 19 19 19 19 18 18 18 18 18 18 18 18 18 17 17 17 17 17 17 17 17 16
19 19 19 19 19 19 19 19 19 18 18 18 18 18 18 18 18 18 18 19 19 19 19 19 19 18 18 18 18 18 18 18 18 18 17 17 17 17 17 17 17 17 16
19 19 19 19 19 19 19 19 19 19 18 18 18 18 18 18 18 18 18 18 18 19 19 19 19 18 18 18 18 18 18 18 18 17 17 17 17 17 17 17 16 16 16
19 19 19 19 19 19 19 19 19 19 18 18 18 18 18 18 18 18 18 18 18 18 18 18 18 18 18 18 18 18 18 18 17 17 17 17 17 17 17 16 16 16 16
19 19 19 19 19 19 19 19 18 18 18 18 18 18 18 18 18 18 18 18 18 18 18 18 18 18 18 18 18 18 18 17 17 17 17 17 17 17 16 16 16 16 16
19 19 19 19 19 19 19 18 18 18 18 18 18 18 18 18 18 18 18 18 18 18 18 18 18 18 18 18 18 18 17 17 17 17 17 17 16 16 16 16 16 16 16
19 19 19 19 19 19 18 18 18 18 18 18 18 18 18 18 18 18 18 18 17 17 17 18 18 18 18 18 17 17 17 17 17 17 17 17 16 16 16 16 16 16 15
19 19 19 18 18 18 18 18 18 18 18 18 18 18 18 18 18 18 18 17 17 17 17 17 17 17 17 17 17 17 17 17 16 16 16 16 16 16 16 15 15 15 15
19 18 18 18 18 18 18 18 18 18 18 18 18 18 18 17 17 17 17 17 17 17 17 17 17 17 17 17 17 16 16 16 16 16 16 16 15 15 15 15 15 15 15
18 18 18 18 18 18 18 18 17 17 17 17 17 17 17 17 17 17 17 17 17 17 17 17 17 17 17 16 16 16 16 16 16 16 15 15 15 15 15 15 15 14 14
18 18 18 18 18 18 18 17 17 17 17 17 17 17 17 17 17 17 17 17 17 16 16 16 16 16 16 16 16 16 16 16 15 15 15 15 15 15 15 14 14 14 14
18 18 18 18 18 17 17 17 17 17 17 17 17 17 17 17 17 17 17 17 16 16 16 16 16 16 16 15 15 15 15 15 15 15 15 15 14 14 14 14 14 14 14
18 18 18 17 17 17 17 17 17 17 17 17 17 17 16 17 17 16 16 16 16 16 16 16 16 16 15 15 15 15 15 15 14 14 14 14 14 14 14 14 14 13 13
17 17 17 17 17 17 17 17 17 17 16 16 16 16 16 16 16 16 16 16 16 16 16 15 15 15 15 15 15 15 15 14 14 14 14 14 14 14 14 13 13 13 13
17 17 17 17 17 17 17 16 16 16 16 16 16 16 16 16 16 16 16 16 16 16 15 15 15 15 15 15 15 14 14 14 14 14 13 13 13 13 13 13 13 13 13
17 17 17 16 16 16 16 16 16 16 16 16 16 16 16 16 16 16 15 15 15 15 15 15 15 15 15 15 14 14 14 14 13 13 13 13 13 13 13 13 13 12 12
16 16 16 16 16 16 16 16 16 16 16 16 16 16 16 15 15 15 15 15 15 15 15 15 15 14 14 14 14 14 14 13 13 13 13 13 13 12 12 12 12 12 12
Wind_Speed
4 4 3 4 5 5 4 4 4 4 4 4 3 3 4 6 8 9 10 14 15 15 15 15 14 13 13 13 12 12 12 12 11 11 11 11 11 11 10 10 10 10 9
5 4 3 3 4 6 6 5 4 3 2 1 2 2 4 6 7 9 10 12 15 16 16 15 14 14 13 13 13 13 13 13 12 13 13 12 12 12 11 11 11 10 10
6 4 3 2 4 5 5 3 2 2 1 1 2 3 3 4 6 8 10 10 12 15 16 16 15 15 14 14 13 13 13 13 13 13 13 13 13 13 12 12 11 11 10
6 4 2 2 3 3 2 1 1 1 1 1 2 2 2 2 4 7 8 9 10 10 14 17 17 16 15 15 15 14 14 14 14 13 13 13 13 13 12 12 11 11 11
7 4 2 2 2 1 1 1 0 1 1 2 3 3 2 2 3 4 5 8 10 11 12 14 17 17 16 16 15 15 14 14 14 13 13 13 13 13 13 12 12 12 12
6 4 2 2 1 1 0 1 1 1 1 2 3 3 3 3 2 2 4 6 8 11 13 12 13 14 16 16 15 15 14 14 14 14 13 13 12 12 12 12 12 12 12
6 4 2 2 1 1 1 2 1 1 1 1 1 2 3 3 2 3 3 3 5 9 11 12 12 12 12 16 17 16 15 14 14 14 14 13 12 12 11 11 11 11 11
6 5 4 3 2 1 1 1 1 0 1 0 1 1 3 4 3 3 3 3 4 5 6 10 11 12 12 11 13 15 15 14 14 13 13 13 12 12 11 11 11 10 11
6 5 4 3 3 3 2 2 2 2 1 2 1 2 1 2 3 3 3 3 3 3 4 6 9 10 12 11 11 13 14 14 13 11 10 10 11 11 10 10 10 10 9
6 6 5 4 3 3 3 3 3 2 2 1 1 1 3 3 2 3 4 3 3 3 4 4 5 7 10 10 11 11 13 12 12 11 10 10 9 9 9 9 9 9 9
5 5 5 4 4 3 4 4 3 3 3 3 2 1 1 1 2 2 3 4 4 3 3 3 3 4 7 8 9 10 12 12 12 11 10 9 8 8 8 8 8 8 8
3 4 4 4 4 4 4 4 4 3 3 3 2 2 2 2 2 2 3 3 4 4 3 2 2 4 5 7 8 9 12 13 12 11 10 9 8 7 7 7 7 7 7
4 5 5 4 4 5 4 4 4 3 3 3 3 3 3 3 2 3 2 2 3 3 3 2 2 3 4 5 6 8 10 11 11 11 10 9 8 8 7 7 6 6 6
5 5 5 5 5 5 5 4 4 4 3 4 4 3 3 3 3 3 3 2 2 3 2 3 2 2 3 5 7 8 7 9 10 10 10 10 9 9 8 7 6 6 5
5 5 5 5 6 6 5 5 4 4 4 4 4 4 3 3 3 3 3 3 3 2 3 3 2 2 2 4 6 6 7 9 10 10 10 10 9 9 8 7 6 6 5
5 5 4 5 5 5 5 5 4 4 4 4 4 3 3 3 3 2 2 3 3 4 3 3 3 2 2 2 4 5 6 7 9 10 9 10 9 9 9 8 7 6 6
5 5 5 5 5 5 5 5 5 5 5 5 5 4 5 4 3 3 2 1 2 2 3 4 2 1 1 1 1 3 4 5 6 9 9 9 9 9 9 8 7 7 7
6 6 5 5 6 6 5 6 7 6 6 7 6 5 6 4 4 4 2 2 2 2 3 3 2 1 1 2 2 2 3 3 4 7 8 8 8 8 8 8 8 7 7
5 5 5 6 6 6 6 6 7 7 7 7 6 6 6 5 5 4 3 3 2 2 2 2 3 2 1 1 0 1 1 1 2 4 5 6 7 7 7 7 8 8 8
6 6 6 6 6 6 6 6 6 7 6 6 6 7 7 6 6 5 4 4 3 2 1 1 2 2 1 1 1 1 1 1 1 2 3 4 5 6 7 7 7 8 8
6 5 5 5 5 5 6 6 6 7 6 7 6 6 7 7 7 6 4 4 3 2 2 2 2 1 1 1 2 2 1 1 2 1 1 2 2 3 4 6 8 8 8
4 3 4 5 5 6 7 8 7 6 6 7 7 7 7 6 6 6 6 5 5 4 4 3 3 3 3 3 2 2 1 0 2 2 1 2 2 2 3 6 8 9 9
4 4 5 5 5 6 7 7 8 6 6 6 7 6 6 6 5 4 4 4 4 5 6 5 5 5 4 4 3 2 2 2 3 3 1 2 2 3 4 6 9 9 9
4 5 5 5 5 6 6 6 6 6 5 6 6 7 7 6 5 5 4 2 2 3 4 4 5 6 5 5 5 4 4 2 2 2 2 2 2 3 3 4 8 9 9
4 5 4 4 5 6 6 6 5 3 4 6 6 6 6 6 8 7 5 4 3 3 3 4 5 5 6 6 5 2 2 2 2 2 1 2 2 2 2 3 5 7 8
5 5 5 5 6 6 7 6 5 3 4 4 4 5 7 8 9 8 6 6 5 5 3 2 2 3 2 3 4 5 5 4 2 2 2 2 2 0 2 2 2 3 4
Wind_Direction
185 193 204 212 227 231 225 229 243 257 262 259 243 210 203 198 199 197 198 200 199 199 202 204 205 205 207 209 210 211 212 213 212 212 213 216 219 219 219 218 220 222 224
185 186 198 212 227 228 227 225 230 238 244 233 246 228 212 203 198 203 204 205 205 204 208 210 210 212 213 214 217 218 220 220 219 218 219 220 223 224 225 224 224 226 227
178 181 193 213 227 226 222 218 242 246 259 251 266 253 219 209 197 204 206 207 211 211 212 214 216 217 217 219 223 225 226 226 224 223 223 225 228 229 227 227 229 230 233
183 182 190 226 237 225 197 185 230 259 286 276 271 266 236 223 213 208 204 206 211 215 218 220 220 220 222 224 227 229 228 228 226 224 223 224 227 228 229 231 232 234 238
186 183 200 232 237 215 203 235 169 198 246 270 267 267 260 237 232 226 211 208 213 217 219 221 221 222 224 228 232 232 230 228 228 226 225 225 225 227 229 230 233 237 240
193 185 207 238 226 174 224 253 232 242 236 253 282 296 285 268 245 239 232 221 219 221 220 219 220 226 230 231 234 235 231 230 229 226 226 227 228 229 230 232 236 239 241
201 192 200 218 200 185 216 225 214 309 301 289 359 326 318 304 274 245 240 234 229 226 220 220 219 221 226 231 234 234 233 232 231 228 227 228 228 229 230 232 237 239 239
203 201 192 206 203 189 229 232 161 337 304 334 132 44 343 334 318 274 258 235 239 238 223 222 220 219 219 219 227 230 231 231 232 231 229 229 229 229 231 234 235 238 239
201 200 194 196 203 185 205 223 200 182 243 288 165 146 153 259 297 308 292 270 255 235 232 225 221 222 220 220 222 226 227 227 228 228 227 228 229 228 229 231 234 236 241
211 206 197 194 200 195 207 221 197 191 184 249 280 215 196 188 206 301 309 297 277 242 234 232 223 217 219 222 222 220 220 219 220 222 224 226 228 227 229 232 235 238 242
228 216 199 192 201 203 208 213 210 203 193 200 219 234 238 224 191 195 281 306 313 284 251 230 217 212 210 215 217 220 216 213 218 220 223 227 229 230 232 233 238 242 244
239 233 213 201 206 208 210 212 210 210 210 206 211 205 194 214 229 206 239 272 286 287 278 249 214 207 209 213 222 226 218 214 214 216 219 223 226 228 231 233 239 245 246
228 233 228 217 217 214 208 201 203 216 216 211 216 216 209 215 210 196 207 253 270 284 299 291 238 209 209 209 222 227 224 218 210 209 211 214 218 221 225 230 237 244 247
223 226 224 223 221 213 210 198 205 217 214 218 231 225 226 231 209 198 197 199 269 294 294 278 286 225 214 209 216 218 218 215 211 208 207 209 213 216 218 222 229 239 249
229 224 222 225 223 214 209 200 210 221 222 226 234 236 235 243 228 222 208 189 186 242 274 272 275 269 226 213 211 205 205 209 211 210 209 212 214 214 214 216 222 231 239
231 223 225 225 225 221 217 208 213 218 219 236 237 241 249 247 244 237 224 209 192 194 240 260 250 267 237 223 213 206 213 209 208 208 210 211 212 214 216 219 223 229 237
226 226 228 225 221 219 219 217 224 225 230 243 248 238 247 245 242 243 236 223 208 185 228 270 262 292 285 263 233 223 220 204 207 210 214 215 214 215 217 220 225 228 232
231 228 227 226 224 223 219 219 226 229 228 237 243 241 248 247 241 242 230 232 229 207 203 250 276 288 269 238 218 217 211 208 205 212 213 213 213 216 218 222 227 227 230
237 234 226 225 229 227 222 226 228 233 232 234 234 236 243 238 240 240 230 234 235 227 197 212 256 274 276 241 11 277 236 223 213 220 215 212 212 217 221 227 227 226 229
232 236 233 229 227 227 226 230 233 236 239 236 229 231 234 229 232 233 232 231 226 223 213 215 249 275 277 281 157 226 307 303 267 234 222 220 222 226 228 229 225 225 229
233 234 234 239 236 234 237 230 231 236 236 235 234 234 234 228 230 227 227 213 201 205 215 223 244 260 272 267 229 220 244 285 289 233 229 245 221 224 227 227 225 227 227
231 227 232 241 243 247 248 235 225 235 233 232 234 237 238 233 235 228 225 212 195 202 211 214 228 237 244 235 225 216 209 248 279 248 172 256 204 235 230 221 225 228 230
221 230 236 240 246 251 254 247 234 227 227 227 230 232 239 235 216 213 224 229 234 230 210 203 219 230 225 220 204 221 227 222 242 239 180 260 245 245 242 234 229 228 232
220 231 240 241 245 255 254 256 248 232 233 235 230 225 224 226 219 195 197 218 247 257 241 221 220 230 228 217 202 203 214 227 278 267 180 223 252 247 249 239 235 232 237
237 242 238 240 246 258 250 244 236 229 236 243 239 229 214 219 226 204 189 208 241 268 275 247 236 239 234 222 198 167 175 167 269 275 231 186 247 269 275 264 253 240 243
236 247 247 246 243 249 250 238 221 221 238 250 253 244 227 219 220 206 194 197 219 240 247 287 292 289 263 237 210 190 188 195 219 250 236 178 220 221 296 277 264 252 249
Height
1568 1568 1569 1569 1569 1569 1569 1569 1569 1569 1569 1569 1569 1569 1568 1568 1568 1568 1568 1568 1568 1568 1568 1569 1569 1569 1569 1569 1569 1569 1569 1569 1569 1570 1570 1570 1571 1571 1571 1571 1572 1572 1572
1568 1568 1569 1569 1569 1569 1569 1569 1569 1569 1569 1569 1569 1568 1568 1567 1567 1567 1567 1567 1567 1567 1567 1568 1568 1568 1568 1568 1568 1568 1568 1568 1568 1568 1568 1569 1569 1569 1570 1570 1570 1570 1571
1568 1568 1568 1568 1569 1569 1568 1569 1569 1569 1568 1568 1568 1568 1567 1567 1566 1566 1566 1566 1566 1566 1566 1567 1567 1567 1567 1566 1566 1566 1566 1566 1566 1567 1567 1567 1567 1568 1568 1568 1568 1568 1569
1567 1567 1567 1568 1568 1568 1568 1568 1568 1568 1568 1567 1567 1566 1566 1565 1565 1565 1565 1565 1565 1565 1565 1565 1566 1565 1565 1565 1565 1565 1565 1565 1565 1565 1565 1565 1565 1565 1566 1566 1566 1566 1566
1566 1567 1567 1567 1567 1567 1567 1567 1567 1567 1567 1566 1565 1565 1564 1563 1563 1563 1563 1563 1563 1564 1564 1564 1564 1563 1564 1563 1563 1563 1563 1563 1563 1563 1563 1563 1563 1563 1563 1564 1564 1564 1564
1565 1565 1566 1566 1566 1566 1566 1566 1566 1566 1566 1565 1564 1563 1563 1562 1562 1561 1562 1562 1562 1562 1562 1562 1562 1562 1562 1562 1561 1561 1561 1561 1561 1561 1561 1561 1561 1561 1561 1561 1561 1561 1561
1564 1564 1564 1565 1565 1565 1565 1565 1565 1565 1564 1564 1563 1562 1561 1561 1560 1560 1560 1560 1560 1561 1561 1561 1560 1560 1560 1560 1560 1559 1559 1559 1559 1558 1558 1558 1558 1558 1558 1558 1558 1558 1558
1563 1563 1563 1563 1564 1564 1564 1564 1564 1563 1563 1562 1562 1560 1560 1560 1559 1558 1559 1559 1559 1559 1559 1559 1559 1558 1558 1558 1557 1557 1557 1557 1557 1556 1556 1556 1556 1556 1555 1555 1555 1555 1555
1562 1562 1562 1562 1562 1562 1562 1562 1562 1562 1561 1561 1561 1561 1559 1558 1558 1557 1557 1557 1557 1557 1557 1556 1556 1556 1556 1556 1556 1555 1555 1555 1554 1554 1554 1553 1553 1553 1553 1553 1552 1552 1552
1560 1561 1561 1561 1561 1561 1561 1560 1560 1560 1560 1560 1559 1559 1559 1558 1557 1556 1556 1555 1555 1555 1554 1554 1554 1554 1554 1553 1553 1553 1553 1553 1552 1552 1552 1551 1551 1551 1550 1550 1549 1549 1549
1559 1559 1559 1559 1559 1559 1559 1559 1558 1558 1558 1558 1558 1558 1557 1557 1556 1555 1553 1553 1553 1552 1552 1551 1551 1551 1551 1551 1551 1550 1551 1550 1550 1550 1549 1549 1549 1548 1548 1547 1547 1546 1545
1556 1557 1557 1557 1556 1556 1556 1556 1556 1556 1556 1556 1556 1556 1555 1555 1554 1553 1552 1551 1550 1550 1549 1549 1549 1549 1549 1548 1548 1548 1548 1548 1548 1547 1547 1546 1546 1545 1545 1544 1544 1543 1542
1553 1554 1554 1554 1554 1554 1554 1554 1554 1554 1554 1553 1553 1553 1553 1553 1552 1552 1551 1550 1549 1548 1547 1547 1546 1546 1546 1545 1545 1545 1545 1545 1544 1544 1544 1544 1543 1543 1542 1541 1541 1540 1540
1551 1551 1552 1552 1551 1551 1551 1551 1551 1551 1551 1551 1551 1551 1550 1550 1550 1550 1549 1548 1547 1546 1545 1545 1544 1544 1543 1543 1542 1542 1542 1542 1541 1541 1541 1541 1540 1540 1539 1538 1538 1537 1537
1548 1548 1548 1548 1548 1548 1548 1548 1548 1548 1549 1548 1548 1548 1548 1548 1547 1547 1547 1546 1546 1543 1542 1542 1542 1541 1541 1540 1540 1539 1539 1539 1538 1538 1538 1537 1537 1537 1536 1536 1535 1534 1533
1544 1545 1545 1545 1545 1545 1545 1545 1545 1545 1546 1545 1545 1545 1545 1545 1544 1544 1543 1543 1543 1542 1540 1540 1539 1539 1538 1537 1537 1537 1536 1536 1536 1535 1535 1535 1534 1534 1533 1533 1532 1531 1530
1541 1541 1541 1541 1541 1541 1541 1542 1541 1542 1542 1543 1543 1542 1542 1542 1541 1541 1540 1540 1539 1539 1538 1537 1537 1536 1535 1535 1534 1534 1534 1533 1533 1532 1533 1532 1531 1531 1531 1530 1529 1528 1527
1537 1538 1538 1538 1538 1538 1538 1538 1538 1538 1538 1539 1539 1539 1539 1539 1538 1537 1537 1536 1536 1536 1535 1534 1533 1533 1532 1531 1531 1531 1530 1530 1530 1530 1529 1529 1529 1529 1528 1527 1527 1526 1525
1533 1534 1533 1533 1533 1533 1533 1533 1534 1534 1534 1535 1535 1535 1535 1535 1534 1534 1533 1533 1533 1532 1532 1531 1530 1530 1529 1528 1528 1528 1528 1527 1527 1526 1526 1526 1526 1526 1525 1525 1524 1523 1522
1528 1529 1529 1529 1528 1529 1529 1529 1529 1529 1530 1530 1530 1530 1531 1530 1530 1530 1529 1529 1529 1529 1528 1528 1527 1526 1526 1525 1525 1524 1524 1524 1523 1523 1523 1523 1523 1523 1522 1522 1521 1520 1519
1524 1524 1524 1524 1524 1524 1524 1524 1524 1524 1525 1525 1525 1525 1526 1526 1526 1526 1525 1525 1525 1525 1525 1524 1523 1522 1522 1521 1521 1521 1521 1520 1520 1520 1520 1520 1519 1519 1519 1518 1518 1517 1516
1519 1519 1519 1519 1519 1519 1519 1520 1519 1519 1519 1519 1519 1520 1521 1521 1521 1521 1521 1521 1521 1521 1520 1520 1520 1519 1518 1518 1518 1518 1517 1517 1516 1517 1516 1516 1516 1515 1515 1515 1514 1514 1513
1514 1515 1515 1515 1515 1515 1515 1515 1514 1514 1514 1514 1514 1515 1516 1516 1517 1517 1517 1517 1517 1517 1517 1517 1516 1515 1515 1515 1514 1514 1514 1514 1513 1513 1513 1512 1512 1512 1512 1511 1511 1510 1509
1510 1510 1510 1510 1510 1510 1510 1510 1510 1510 1509 1509 1509 1510 1511 1511 1512 1512 1512 1512 1512 1512 1513 1512 1512 1512 1512 1512 1511 1511 1511 1510 1510 1510 1510 1509 1508 1508 1508 1508 1507 1507 1506
1505 1506 1506 1506 1505 1505 1505 1505 1505 1505 1505 1504 1505 1505 1506 1506 1507 1507 1508 1507 1507 1508 1508 1508 1508 1508 1508 1507 1507 1507 1507 1506 1506 1506 1506 1506 1505 1504 1504 1504 1503 1503 1502
1501 1502 1502 1502 1501 1501 1500 1500 1501 1500 1500 1500 1500 1500 1501 1501 1502 1502 1503 1503 1503 1503 1503 1504 1504 1503 1503 1503 1503 1503 1503 1502 1501 1501 1502 1502 1501 1501 1500 1500 1499 1499 1498